Clarksburg, WV

1:59 AM EDT on April 25, 2018 (GMT -0400)
Benedum

Weather History for KCKB - January, 2012

Change the Weather History Date:

Thursday, January 26, 2012

  Actual Average Record
Temperature  
Mean Temperature 47 °F -  
Max Temperature 59 °F 40 °F 77 °F (1950)
Min Temperature 37 °F 21 °F -11 °F (1936)
Degree Days  
Heating Degree Days 18    
Moisture  
Dew Point 42 °F    
Average Humidity 89    
Maximum Humidity 100    
Minimum Humidity 75    
Precipitation  
Precipitation 0.30 in - - ()
Sea Level Pressure  
Sea Level Pressure 29.85 in    
Wind  
Wind Speed 3 mph (East)    
Max Wind Speed 9 mph    
Max Gust Speed -    
Visibility 5 miles    
Events Rain    
Averages and records for this station are not official NWS values.
T = Trace of Precipitation, MM = Missing Value Source: NWS Daily Summary

Daily Weather History Graph

Daily Weather History Graph

Search for Another Location

Airport or City:

Astronomy

Jan. 26, 2012 Rise Set
Actual Time 7:33 AM EST 5:33 PM EST
Civil Twilight 7:04 AM EST 6:02 PM EST
Nautical Twilight 6:32 AM EST 6:35 PM EST
Astronomical Twilight 6:00 AM EST 7:06 PM EST
Moon 9:01 AM EST (1/26) 9:23 PM EST (1/26)
Length of Visible Light 10h 58m
Length of Day
10h 00m
Waxing Crescent, 12% of the Moon is Illuminated
Jan 26
Waxing Crescent
Jan 30
First Quarter
Feb 7
Full
Feb 14
Last Quarter
Feb 21
New

Hourly Weather History & Observations

Time (EST) Temp. Windchill Dew Point Humidity Pressure Visibility Wind Dir Wind Speed Gust Speed Precip Events Conditions
12:53 AM 37.9 °F 34.4 °F 32.0 °F 79% 30.12 in 8.0 mi NNE 4.6 mph - N/A   Overcast
1:53 AM 37.9 °F - 32.0 °F 79% 30.10 in 8.0 mi Calm Calm - N/A   Overcast
2:53 AM 37.9 °F - 33.1 °F 83% 30.09 in 8.0 mi Calm Calm - 0.00 in Rain Light Rain
3:53 AM 37.9 °F 35.5 °F 33.1 °F 83% 30.06 in 8.0 mi NNE 3.5 mph - 0.00 in   Overcast
4:53 AM 37.9 °F 33.5 °F 33.1 °F 83% 30.04 in 7.0 mi NNE 5.8 mph - 0.00 in   Overcast
5:53 AM 37.9 °F 35.5 °F 34.0 °F 86% 30.02 in 7.0 mi NNE 3.5 mph - N/A   Overcast
6:53 AM 39.0 °F - 35.1 °F 86% 29.99 in 7.0 mi Calm Calm - 0.00 in   Overcast
7:53 AM 39.0 °F - 35.1 °F 86% 29.95 in 6.0 mi Calm Calm - N/A   Overcast
8:53 AM 41.0 °F - 37.0 °F 86% 29.93 in 5.0 mi Calm Calm - 0.01 in Rain Light Rain
9:53 AM 41.0 °F 38.0 °F 37.9 °F 89% 29.92 in 3.0 mi North 4.6 mph - 0.02 in Rain Light Rain
10:53 AM 39.9 °F 34.5 °F 37.9 °F 93% 29.91 in 3.0 mi NNE 8.1 mph - 0.01 in Rain Light Rain
11:19 AM 41.0 °F 35.2 °F 39.2 °F 93% 29.88 in 1.5 mi NE 9.2 mph - 0.04 in Rain Rain
11:28 AM 41.0 °F - 39.2 °F 93% 29.87 in 3.0 mi Calm Calm - 0.04 in Rain Light Rain
11:44 AM 42.8 °F 41.1 °F 39.2 °F 87% 29.86 in 2.5 mi North 3.5 mph - 0.04 in Rain Light Rain
11:53 AM 42.1 °F - 39.9 °F 92% 29.86 in 2.5 mi Calm Calm - 0.05 in Rain Light Rain
12:08 PM 42.8 °F - 39.2 °F 87% 29.87 in 1.0 mi Calm Calm - 0.03 in Rain Heavy Rain
12:20 PM 42.8 °F 40.1 °F 41.0 °F 93% 29.86 in 1.2 mi NNE 4.6 mph - 0.06 in Rain Rain
12:42 PM 42.8 °F - 41.0 °F 93% 29.84 in 2.0 mi Calm Calm - 0.08 in Rain Light Rain
12:53 PM 43.0 °F 41.3 °F 41.0 °F 93% 29.83 in 1.8 mi ENE 3.5 mph - 0.08 in Rain Light Rain
1:02 PM 42.8 °F - 42.8 °F 100% 29.83 in 2.0 mi Calm Calm - 0.00 in Rain Light Rain
1:45 PM 46.4 °F - 44.6 °F 93% 29.79 in 3.0 mi Calm Calm - 0.00 in   Overcast
1:53 PM 45.0 °F - 44.1 °F 97% 29.78 in 3.0 mi Calm Calm - 0.00 in Rain Light Rain
2:41 PM 46.4 °F - 44.6 °F 93% 29.78 in 1.2 mi Calm Calm - 0.02 in Rain Light Rain
2:53 PM 46.0 °F - 44.1 °F 93% 29.78 in 3.0 mi Calm Calm - 0.03 in Rain Light Rain
3:53 PM 50.0 °F - 48.0 °F 93% 29.76 in 3.0 mi Calm Calm - 0.01 in Rain Light Rain
4:53 PM 54.0 °F - 51.1 °F 90% 29.76 in 4.0 mi South 6.9 mph - 0.03 in Rain Light Rain
5:53 PM 55.4 °F - 51.8 °F 88% 29.76 in 6.0 mi South 9.2 mph - N/A Rain Light Rain
6:53 PM 55.9 °F - 53.1 °F 90% 29.73 in 6.0 mi South 6.9 mph - 0.03 in Rain Light Rain
7:53 PM 55.9 °F - 54.0 °F 93% 29.69 in 10.0 mi SSE 6.9 mph - 0.02 in Rain Light Rain
8:53 PM 55.9 °F - 53.1 °F 90% 29.65 in 10.0 mi SSE 3.5 mph - 0.01 in   Overcast
9:53 PM 57.0 °F - 53.1 °F 87% 29.59 in 10.0 mi ESE 8.1 mph - 0.00 in   Overcast
10:53 PM 57.2 °F - 51.8 °F 82% 29.56 in 10.0 mi SSE 4.6 mph - N/A Rain Light Rain
11:53 PM 59.0 °F - 51.1 °F 75% 29.49 in 10.0 mi SE 4.6 mph - 0.00 in   Overcast